Lancaster, OH

5:11 PM EDT on June 27, 2017 (GMT -0400)
Fairfield County

Weather History for KLHQ - April, 2012

Change the Weather History Date:

Saturday, April 28, 2012

  Actual Average Record
Temperature  
Mean Temperature 46 °F -  
Max Temperature 52 °F 66 °F 89 °F (1986)
Min Temperature 41 °F 41 °F 26 °F (1947)
Degree Days  
Heating Degree Days 19    
Moisture  
Dew Point 32 °F    
Average Humidity 60    
Maximum Humidity 80    
Minimum Humidity 43    
Precipitation  
Precipitation 0.15 in - - ()
Sea Level Pressure  
Sea Level Pressure 30.15 in    
Wind  
Wind Speed 8 mph (East)    
Max Wind Speed 14 mph    
Max Gust Speed 24 mph    
Visibility 9 miles    
Events Rain    
Averages and records for this station are not official NWS values.
T = Trace of Precipitation, MM = Missing Value Source: NWS Daily Summary

Daily Weather History Graph

Daily Weather History Graph

Search for Another Location

Airport or City:

Trip Planner

Search our weather history database for the weather conditions in past years. The results will help you decide how hot, cold, wet, or windy it might be!

Date:

Astronomy

Apr. 28, 2012 Rise Set
Actual Time 6:34 AM EDT 8:22 PM EDT
Civil Twilight 6:05 AM EDT 8:51 PM EDT
Nautical Twilight 5:30 AM EDT 9:26 PM EDT
Astronomical Twilight 4:52 AM EDT 10:04 PM EDT
Moon 12:12 PM EDT (4/28) 1:46 AM EDT (4/28)
Length of Visible Light 14h 46m
Length of Day
13h 48m
Waxing Crescent, 42% of the Moon is Illuminated
Apr 28
Waxing Crescent
Apr 29
First Quarter
May 5
Full
May 12
Last Quarter
May 20
New

Hourly Weather History & Observations

Time (EDT) Temp. Windchill Dew Point Humidity Pressure Visibility Wind Dir Wind Speed Gust Speed Precip Events Conditions
12:53 AM 43.0 °F 40.3 °F 27.0 °F 53% 30.20 in 10.0 mi East 4.6 mph - N/A   Clear
1:53 AM 43.0 °F 37.7 °F 27.0 °F 53% 30.19 in 10.0 mi East 9.2 mph - N/A   Overcast
3:53 AM 43.0 °F 40.3 °F 28.0 °F 56% 30.21 in 10.0 mi ESE 4.6 mph - N/A   Mostly Cloudy
4:53 AM 42.1 °F 36.6 °F 28.0 °F 58% 30.21 in 10.0 mi East 9.2 mph - N/A   Overcast
5:53 AM 42.1 °F 36.6 °F 25.0 °F 51% 30.20 in 10.0 mi East 9.2 mph - N/A   Clear
6:53 AM 42.1 °F 35.7 °F 21.9 °F 45% 30.18 in 10.0 mi East 11.5 mph - N/A   Mostly Cloudy
7:53 AM 41.0 °F 35.8 °F 26.1 °F 55% 30.22 in 10.0 mi ESE 8.1 mph - 0.00 in Rain Light Rain
8:53 AM 43.0 °F 37.2 °F 26.1 °F 51% 30.20 in 10.0 mi ESE 10.4 mph - 0.00 in   Overcast
9:53 AM 45.0 °F 39.7 °F 26.1 °F 48% 30.18 in 10.0 mi East 10.4 mph - N/A   Overcast
10:53 AM 48.0 °F - 27.0 °F 44% 30.14 in 10.0 mi ESE 9.2 mph - N/A   Overcast
11:53 AM 51.1 °F - 28.9 °F 43% 30.12 in 10.0 mi East 13.8 mph - N/A   Overcast
12:45 PM 44.6 °F 38.4 °F 33.8 °F 66% 30.18 in 4.0 mi NNE 12.7 mph 24.2 mph 0.01 in Rain Light Rain
12:53 PM 45.0 °F 40.1 °F 33.1 °F 63% 30.18 in 7.0 mi NE 9.2 mph - 0.02 in Rain Rain
1:53 PM 43.0 °F 37.2 °F 37.0 °F 80% 30.14 in 5.0 mi ENE 10.4 mph - 0.12 in Rain Rain
2:53 PM 46.0 °F 42.5 °F 37.0 °F 71% 30.12 in 10.0 mi ENE 6.9 mph - 0.00 in   Overcast
3:53 PM 46.9 °F - 37.9 °F 71% 30.09 in 10.0 mi ENE 11.5 mph - N/A   Overcast
4:53 PM 48.0 °F - 35.1 °F 61% 30.08 in 10.0 mi East 6.9 mph - N/A   Overcast
5:53 PM 46.9 °F - 35.1 °F 63% 30.10 in 10.0 mi ENE 8.1 mph - N/A   Overcast
6:25 PM 46.4 °F 44.3 °F 33.8 °F 62% 30.09 in 10.0 mi East 4.6 mph - 0.01 in   Overcast
6:53 PM 46.9 °F - 35.1 °F 63% 30.08 in 10.0 mi East 4.6 mph - 0.01 in   Overcast
7:53 PM 46.9 °F - 36.0 °F 66% 30.12 in 10.0 mi NNE 4.6 mph - N/A   Overcast
9:53 PM 46.0 °F 44.8 °F 36.0 °F 68% 30.14 in 10.0 mi ENE 3.5 mph - 0.00 in Rain Light Rain
10:48 PM 46.4 °F - 37.4 °F 71% 30.15 in 10.0 mi Calm Calm - 0.00 in   Overcast
10:53 PM 46.9 °F - 37.0 °F 68% 30.16 in 10.0 mi ENE 3.5 mph - 0.00 in   Overcast
11:53 PM 46.0 °F 41.4 °F 39.0 °F 76% 30.14 in 10.0 mi NE 9.2 mph - N/A   Overcast